[[{"header":{"parameterUnit":"m.s-1","parameterCategory":1,"la1":30.2991,"la2":30.254,"lo1":-89.0895,"lo2":-89.0444,"dy":0.0017,"dx":0.0017,"nx":28,"ny":28,"refTime":"2024-09-02T03:00:00:Z","depth":0,"parameterNumber":2,"parameterNumberName":"U-component_of_WINDS"},"data":[0,0,0,0,0,0,0,0,0,0,0,0,0,0,0,0,0,0,0,0,0,0,0,0,0,0,0,0,0,0,0,0,0,0,0,0,0,0,0,0,0,0,0,0,0,0,0,0,0,0,0,0,0,0,0,0,0,0,-8.396,-8.3962,0,-8.4148,-8.415,-8.4152,-8.4076,-8.4072,-8.4067,-8.4063,-8.4251,-8.426,-8.4269,0,0,0,0,0,0,0,0,0,0,0,0,0,-8.3533,-8.3541,-8.396,-8.3962,-8.3965,-8.4147,-8.415,-8.4152,-8.4077,-8.4071,-8.4066,-8.4061,-8.4248,-8.4259,-8.427,0,0,0,0,0,0,0,0,0,0,0,0,0,-8.3719,-8.3544,-8.3959,-8.3949,-8.395,-8.4147,-8.415,-8.4153,-8.4078,-8.4071,-8.4065,-8.4058,-8.4245,-8.4258,-8.4272,-8.4489,0,0,-8.4313,-8.4319,0,0,0,0,0,0,0,0,-8.3709,-8.3735,-8.3948,-8.395,-8.3951,-8.4082,-8.4068,-8.4265,-8.408,-8.4029,-8.4063,-8.4055,-8.42,-8.4217,-8.4267,-8.4498,-8.4506,-8.4315,-8.4323,-8.4329,-8.4333,0,0,0,0,0,0,0,-8.3696,-8.3726,-8.4034,-8.3951,-8.3953,-8.3934,-8.3953,-8.4105,-8.4149,-8.4033,-8.4028,-8.4052,-8.42,-8.4254,-8.427,-8.4508,-8.4314,-8.4326,-8.4335,-8.434,-8.4926,-8.4933,0,0,0,0,0,0,-8.3683,-8.3716,-8.4028,-8.404,-8.3811,-8.3947,-8.3968,-8.4047,-8.4148,-8.4157,-8.4057,-8.4047,-8.4233,-8.4255,-8.4277,-8.4536,-8.4329,-8.4342,-8.4349,-8.4919,-8.4928,-8.4936,0,0,0,0,0,0,-8.3674,-8.3712,-8.402,-8.3877,-8.3915,-8.3961,-8.405,-8.4054,-8.4107,-8.4166,-8.4173,-8.4104,-8.4229,-8.4258,-8.4437,-8.4541,-8.4348,-8.436,-8.491,-8.4922,-8.4932,-8.5057,0,0,0,0,0,0,-8.3662,-8.3709,-8.3792,-8.3879,-8.3923,-8.4178,-8.4056,-8.4062,-8.4132,-8.4121,-8.4212,-8.422,-8.4226,-8.4417,-8.445,-8.4557,-8.4371,-8.4901,-8.4915,-8.4928,-8.5043,-8.5071,-8.5094,0,0,0,0,0,-8.3647,-8.3819,-8.3797,-8.3835,-8.4028,-8.4184,-8.4209,-8.4213,-8.4141,-8.4224,-8.4262,-8.4217,-8.4526,-8.4436,-8.4473,-8.4585,-8.4894,-8.4911,-8.4927,-8.5032,-8.5065,-8.5094,0,0,0,0,0,0,-8.3742,-8.383,-8.3806,-8.4012,-8.4092,-8.4171,-8.4276,-8.4248,-8.4349,-8.4334,-8.4334,-8.4355,-8.454,-8.4581,-8.4479,-8.48,-8.4699,-8.4724,-8.4766,-8.4798,-8.4823,-8.4807,-8.4382,0,0,0,0,0,-8.3787,-8.3908,-8.3978,-8.4153,-8.4194,-8.4229,-8.4297,-8.4294,-8.4376,-8.4408,-8.4459,-8.4539,-8.4653,-8.4729,-8.4838,-8.5051,-8.5068,-8.5147,-8.5172,-8.5192,-8.5212,-8.5327,-8.5362,-8.499,-8.499,-8.499,0,0,-8.388,-8.3944,-8.4019,-8.4173,-8.4234,-8.4358,-8.4257,-8.4393,-8.4484,-8.4428,-8.46,-8.4641,-8.473,-8.4927,-8.5016,-8.4967,-8.532,-8.5214,-8.5229,-8.5238,-8.5347,-8.5383,-8.5414,-8.5001,-8.4999,-8.4997,0,0,-8.4112,-8.4174,-8.4325,-8.439,-8.4484,-8.4507,-8.4543,-8.4629,-8.4654,-8.4827,-8.4788,-8.4897,-8.5095,-8.5159,-8.5218,-8.5479,-8.5441,-8.5515,-8.5645,-8.5757,-8.5786,-8.5812,-8.5902,-8.5935,-8.5536,-8.5536,-8.5536,0,-8.4216,-8.4401,-8.4406,-8.4545,-8.4613,-8.4572,-8.4724,-8.4786,-8.4911,-8.4958,-8.4902,-8.515,-8.5208,-8.5418,-8.5482,-8.5533,-8.5573,-8.5502,-8.5782,-8.5808,-8.5832,-8.5918,-8.5952,-8.5544,-8.5543,-8.5542,-8.5542,0,-8.4523,-8.4653,-8.4763,-8.4886,-8.4968,-8.5113,-8.5139,-8.5221,-8.5212,-8.524,-8.5417,-8.5485,-8.5606,-8.5657,-8.5649,-8.5868,-8.5834,-8.5781,-8.5678,-8.5876,-8.5956,-8.5989,-8.5556,-8.5553,-8.555,-8.5548,0,0,-8.4815,-8.4942,-8.4982,-8.5037,-8.514,-8.5239,-8.5383,-8.5504,-8.5572,-8.5662,-8.578,-8.595,-8.5902,-8.5969,-8.5969,-8.6068,-8.6267,-8.6002,-8.6004,-8.6046,-8.6509,-8.6545,-8.6584,-8.6245,-8.6251,-8.6256,-8.6501,0,-8.5053,-8.5305,-8.5315,-8.5544,-8.5663,-8.5627,-8.5752,-8.5828,-8.5859,-8.5964,-8.5998,-8.6118,-8.6047,-8.6087,-8.6184,-8.6222,-8.6359,-8.6205,-8.6353,-8.6358,-8.6327,-8.6626,-8.6665,-8.6892,-8.6532,-8.6538,-8.6542,0,-8.5362,-8.5462,-8.5704,-8.579,-8.584,-8.5952,-8.6063,-8.6165,-8.6251,-8.6267,-8.6344,-8.633,-8.6475,-8.6372,-8.6572,-8.6467,-8.6529,-8.6557,-8.6566,-8.6576,-8.6458,-8.6641,-8.6965,-8.6997,-8.6592,-8.6588,-8.6584,0,-8.5547,-8.5743,-8.5912,-8.5961,-8.6067,-8.6146,-8.6193,-8.6273,-8.6345,-8.6443,-8.6489,-8.6603,-8.6664,-8.6752,-8.6769,-8.6692,-8.6969,-8.6867,-8.6984,-8.6983,-8.7039,-8.7034,-8.7373,-8.7087,-8.7086,-8.7085,-8.7085,0,-8.5809,-8.5957,-8.5996,-8.61,-8.6265,-8.6276,-8.6439,-8.6481,-8.6553,-8.6663,-8.664,-8.6744,-8.6762,-8.687,-8.6884,-8.7046,-8.7075,-8.709,-8.7091,-8.709,-8.7088,-8.7127,-8.711,-8.7094,-8.7092,-8.7091,-8.7089,0,-8.6041,-8.6074,-8.6256,-8.6342,-8.6367,-8.6485,-8.6558,-8.6657,-8.6688,-8.6828,-8.6861,-8.6909,-8.7035,-8.7061,-8.7211,-8.722,-8.7412,-8.74,-8.7383,-8.738,-8.7495,-8.7482,-8.7867,-8.7917,-8.7601,-8.7604,-8.7607,0,-8.6204,-8.6317,-8.6417,-8.649,-8.6541,-8.666,-8.6733,-8.675,-8.6827,-8.6935,-8.7021,-8.7145,-8.7244,-8.7448,-8.7494,-8.7609,-8.7596,-8.7724,-8.7613,-8.7608,-8.7594,-8.7585,-8.7596,-8.7743,-8.7746,-8.7749,-8.7751,0,-8.6488,-8.6499,-8.6607,-8.6722,-8.6811,-8.6902,-8.6988,-8.7049,-8.7076,-8.7165,-8.7294,-8.7372,-8.7526,-8.7648,-8.7763,-8.7811,-8.7786,-8.7787,-8.7819,-8.7816,-8.7801,-8.7807,-8.7436,-8.7777,-8.7774,-8.7772,-8.7771,-8.777,-8.6688,-8.6787,-8.6872,-8.6993,-8.7061,-8.7142,-8.7239,-8.7283,-8.7391,-8.7518,-8.7522,-8.7662,-8.7746,-8.7898,-8.7954,-8.8063,-8.8023,-8.8071,-8.8082,-8.8093,-8.8102,-8.7788,-8.8085,-8.8084,-8.8084,-8.8083,-8.8083,0,-8.6968,-8.7022,-8.7134,-8.7256,-8.7351,-8.7323,-8.7417,-8.7498,-8.7622,-8.7704,-8.7803,-8.7951,-8.8071,-8.8129,-8.8247,-8.8324,-8.8315,-8.8354,-8.8346,-8.8357,-8.8132,-8.8091,-8.8359,-8.8359,-8.8359,-8.8359,-8.8359,-8.8359,-8.7124,-8.7289,-8.7311,-8.7509,-8.7562,-8.77,-8.7757,-8.7831,-8.7896,-8.8064,-8.8163,-8.8201,-8.8273,-8.8397,-8.8505,-8.8519,-8.8562,-8.8606,-8.8614,-8.8402,-8.8373,-8.8346,-8.8307,-8.8616,-8.8617,-8.8829,-8.8831,-8.8832]},{"header":{"parameterUnit":"m.s-1","parameterCategory":1,"la1":30.2991,"la2":30.254,"lo1":-89.0895,"lo2":-89.0444,"dy":0.0017,"dx":0.0017,"nx":28,"ny":28,"refTime":"2024-09-02T03:00:00:Z","depth":0,"parameterNumber":3,"parameterNumberName":"V-component_of_WINDS"},"data":[0,0,0,0,0,0,0,0,0,0,0,0,0,0,0,0,0,0,0,0,0,0,0,0,0,0,0,0,0,0,0,0,0,0,0,0,0,0,0,0,0,0,0,0,0,0,0,0,0,0,0,0,0,0,0,0,0,0,2.9052,2.9053,0,2.9136,2.9137,2.9137,2.9121,2.9119,2.9118,2.9116,2.9198,2.9202,2.9205,0,0,0,0,0,0,0,0,0,0,0,0,0,2.8876,2.8879,2.9052,2.9053,2.9054,2.9135,2.9137,2.9138,2.9121,2.9119,2.9117,2.9116,2.9197,2.9201,2.9206,0,0,0,0,0,0,0,0,0,0,0,0,0,2.8955,2.888,2.9051,2.9055,2.9057,2.9135,2.9137,2.9138,2.9121,2.9119,2.9117,2.9115,2.9196,2.9201,2.9206,2.9285,0,0,2.9223,2.9225,0,0,0,0,0,0,0,0,2.8951,2.8961,2.9054,2.9055,2.9057,2.9115,2.9105,2.9187,2.9122,2.9097,2.9116,2.9114,2.9172,2.918,2.92,2.9289,2.9293,2.9223,2.9227,2.9229,2.923,0,0,0,0,0,0,0,2.8945,2.8958,2.9085,2.9055,2.9057,2.9053,2.9061,2.912,2.9146,2.9099,2.9098,2.9108,2.9173,2.9195,2.9202,2.9294,2.9223,2.9228,2.9231,2.9233,2.9455,2.9458,0,0,0,0,0,0,2.8939,2.8953,2.9082,2.9087,2.8997,2.9058,2.9067,2.9099,2.9145,2.915,2.911,2.9107,2.9187,2.9196,2.9205,2.9302,2.9229,2.9234,2.9237,2.9453,2.9456,2.9459,0,0,0,0,0,0,2.8935,2.895,2.9079,2.902,2.9036,2.9063,2.9098,2.9102,2.9124,2.9154,2.9158,2.9128,2.9185,2.9197,2.9266,2.9305,2.9236,2.9241,2.945,2.9454,2.9457,2.9497,0,0,0,0,0,0,2.893,2.8949,2.8979,2.9021,2.9039,2.9139,2.9101,2.9105,2.9134,2.9131,2.9172,2.9177,2.9185,2.9259,2.9272,2.9311,2.9246,2.9446,2.9451,2.9456,2.9492,2.9502,2.951,0,0,0,0,0,2.8924,2.8985,2.8981,2.8996,2.9078,2.9141,2.9152,2.9161,2.9137,2.9168,2.9188,2.9175,2.9299,2.9266,2.9281,2.9322,2.9444,2.945,2.9456,2.9488,2.95,2.951,0,0,0,0,0,0,2.8944,2.8991,2.8986,2.9063,2.9099,2.9138,2.9177,2.9172,2.9214,2.9209,2.9217,2.9227,2.9298,2.9317,2.9279,2.9403,2.9368,2.9377,2.9388,2.9399,2.9407,2.9401,2.925,0,0,0,0,0,2.8959,2.9007,2.9044,2.9109,2.9127,2.915,2.9177,2.9182,2.9218,2.9233,2.9257,2.9293,2.934,2.937,2.9415,2.9495,2.9505,2.9532,2.954,2.9547,2.9555,2.9602,2.9615,2.9478,2.9478,2.9478,0,0,2.8987,2.9018,2.9048,2.9114,2.9142,2.9192,2.9162,2.9215,2.9253,2.924,2.9308,2.9328,2.9368,2.9444,2.9479,2.9462,2.9595,2.9555,2.956,2.9564,2.9609,2.9622,2.9634,2.9482,2.9482,2.9481,0,0,2.9065,2.9093,2.9151,2.9181,2.9225,2.924,2.9255,2.9296,2.931,2.9378,2.9371,2.9416,2.9496,2.9526,2.9551,2.9646,2.9637,2.966,2.9706,2.9751,2.9762,2.9771,2.9807,2.9819,2.9668,2.9668,2.9668,0,2.9094,2.917,2.9181,2.9237,2.9267,2.9261,2.9321,2.9349,2.9405,2.9425,2.9407,2.951,2.9536,2.962,2.9644,2.9664,2.9682,2.9655,2.976,2.9769,2.9778,2.9812,2.9825,2.967,2.967,2.967,2.967,0,2.9205,2.9259,2.93,2.9358,2.9392,2.9449,2.947,2.9503,2.9506,2.9523,2.9595,2.9627,2.968,2.97,2.9701,2.9786,2.9774,2.9758,2.9723,2.9794,2.9826,2.9839,2.9674,2.9673,2.9672,2.9672,0,0,2.9296,2.9362,2.9377,2.9404,2.9454,2.9496,2.9554,2.9607,2.9637,2.9677,2.9726,2.9797,2.9783,2.9812,2.9817,2.9857,2.9933,2.9836,2.9837,2.9854,3.003,3.0043,3.0057,2.9928,2.993,2.9932,3.0027,0,2.9379,2.9483,2.9497,2.9588,2.9639,2.9636,2.9687,2.9724,2.9742,2.9788,2.9808,2.9858,2.9835,2.9853,2.9893,2.9915,2.9968,2.9908,2.9974,2.9976,2.9964,3.0074,3.0086,3.0174,3.0039,3.0041,3.0043,0,2.9489,2.9536,2.9634,2.9681,2.9702,2.9748,2.98,2.9843,2.9886,2.9897,2.9932,2.9933,2.9994,2.9958,3.0043,3.0002,3.003,3.0045,3.0049,3.0055,3.0014,3.0084,3.0202,3.0216,3.0062,3.0061,3.0059,0,2.9548,2.9634,2.9705,2.9728,2.9784,2.9816,2.9841,2.9881,2.9914,2.9959,2.9981,3.0032,3.006,3.01,3.0116,3.0088,3.0201,3.0165,3.0212,3.0212,3.0235,3.0233,3.036,3.0253,3.0252,3.0252,3.0252,0,2.964,2.97,2.9732,2.9775,2.9844,2.9859,2.9926,2.9949,2.9986,3.0034,3.0034,3.0079,3.0097,3.0145,3.0158,3.0228,3.024,3.0251,3.0253,3.0251,3.025,3.0269,3.0264,3.0256,3.0255,3.0254,3.0254,0,2.9715,2.9739,2.9816,2.9865,2.9878,2.9927,2.9968,3.001,3.003,3.0091,3.0106,3.0137,3.0194,3.0215,3.0283,3.0292,3.0373,3.037,3.0359,3.036,3.0406,3.0402,3.055,3.0571,3.0449,3.045,3.0451,0,2.9772,2.9819,2.9874,2.9907,2.9934,2.9987,3.0022,3.004,3.0075,3.013,3.0166,3.0224,3.027,3.0362,3.039,3.0444,3.0442,3.0491,3.045,3.0447,3.0445,3.0442,3.0447,3.0498,3.0499,3.05,3.0501,0,2.9871,2.9882,2.9932,2.9989,3.003,3.0074,3.0117,3.0144,3.0169,3.0209,3.0269,3.0306,3.0379,3.0436,3.0492,3.0516,3.0514,3.0514,3.0528,3.0526,3.0518,3.0525,3.038,3.051,3.0509,3.0509,3.0508,3.0508,2.994,2.9983,3.003,3.0087,3.0122,3.0163,3.0206,3.0233,3.0284,3.0345,3.0353,3.0418,3.0462,3.0537,3.0565,3.0616,3.0602,3.0622,3.0627,3.0632,3.0636,3.0511,3.0626,3.0626,3.0625,3.0625,3.0625,0,3.0041,3.0072,3.0124,3.0186,3.0231,3.0227,3.0275,3.0313,3.0371,3.0413,3.0461,3.0531,3.0588,3.0622,3.068,3.0714,3.0715,3.0729,3.0726,3.0733,3.0644,3.0627,3.0728,3.0728,3.0728,3.0728,3.0728,3.0728,3.0098,3.0172,3.0188,3.028,3.031,3.0375,3.0403,3.0442,3.0476,3.0555,3.0603,3.0626,3.0666,3.0727,3.0779,3.0788,3.081,3.0825,3.0833,3.0749,3.0738,3.0728,3.0712,3.083,3.083,3.0917,3.0918,3.0919]}]]